WA4ISB-1 Weather Reports


time (UTC)temp
F
wind
direction
speed
knots
gust
knots
rain 1hr
in
rain 24hr
in
rain mn
in
humidity
%
barometer
mb
20210422165702 78 358 0.0 0.0 0.00 0.00 0.00 47 1018.4
20210422165202 78 358 0.0 0.0 0.00 0.00 0.00 49 1018.4
20210422164701 78 358 0.0 0.0 0.00 0.00 0.00 50 1018.4
20210422164201 78 358 0.0 0.0 0.00 0.00 0.00 49 1018.5
20210422163700 78 358 0.0 0.0 0.00 0.00 0.00 49 1018.6
20210422163201 78 358 0.0 4.3 0.00 0.00 0.00 48 1018.6
20210422162700 78 358 4.3 4.3 0.00 0.00 0.00 51 1018.5
20210422162409 77 358 0.0 0.0 0.00 0.00 0.00 49 1018.6
20210422162200 77 358 0.0 0.0 0.00 0.00 0.00 49 1018.6
20210422161659 77 358 0.0 0.0 0.00 0.00 0.00 51 1018.6
20210422161159 77 358 0.0 0.0 0.00 0.00 0.00 53 1018.7
20210422160659 76 358 0.0 0.0 0.00 0.00 0.00 52 1018.7
20210422155659 76 358 0.0 0.0 0.00 0.00 0.00 53 1018.7
20210422155158 76 358 0.0 0.0 0.00 0.00 0.00 54 1018.7
20210422154658 76 358 0.0 0.0 0.00 0.00 0.00 53 1018.7
20210422153657 75 358 0.0 0.0 0.00 0.00 0.00 56 1018.7
20210422153542 75 358 0.0 0.0 0.00 0.00 0.00 57 1018.7
20210422153157 75 358 0.0 0.0 0.00 0.00 0.00 57 1018.7
20210422152656 75 358 0.0 0.0 0.00 0.00 0.00 56 1018.6
20210422152156 74 358 0.0 0.0 0.00 0.00 0.00 56 1018.7
20210422151656 74 358 0.0 0.0 0.00 0.00 0.00 57 1018.7
20210422151155 74 358 0.0 0.0 0.00 0.00 0.00 57 1018.8
20210422150155 74 358 0.0 0.0 0.00 0.00 0.00 57 1018.8
20210422145840 74 358 0.0 0.0 0.00 0.00 0.00 58 1018.9
20210422145655 74 358 0.0 0.0 0.00 0.00 0.00 58 1018.9
20210422145156 73 358 0.0 0.0 0.00 0.00 0.00 61 1018.9
20210422145006 71 358 0.0 0.0 0.00 0.00 0.00 60 1019.0
20210422144654 72 358 0.0 0.0 0.00 0.00 0.00 62 1019.0
20210422144154 71 358 0.0 0.0 0.00 0.00 0.00 60 1019.0
20210422143943 72 358 0.0 0.0 0.00 0.00 0.00 61 1018.9
20210422143653 72 358 0.0 0.0 0.00 0.00 0.00 61 1018.9
20210422143335 71 358 0.0 0.0 0.00 0.00 0.00 62 1019.0
20210422143153 71 358 0.0 0.0 0.00 0.00 0.00 62 1019.0
20210422142708 71 358 0.0 0.0 0.00 0.00 0.00 60 1019.0
20210422142653 71 358 0.0 0.0 0.00 0.00 0.00 60 1019.0
20210422142346 71 358 0.0 0.0 0.00 0.00 0.00 60 1019.0
20210422142153 71 358 0.0 0.0 0.00 0.00 0.00 60 1019.0
20210422141652 71 358 0.0 0.0 0.00 0.00 0.00 60 1019.0
20210422141152 70 358 0.0 0.0 0.00 0.00 0.00 62 1019.0
20210422140901 70 358 0.0 0.0 0.00 0.00 0.00 64 1019.0
20210422140652 70 358 0.0 0.0 0.00 0.00 0.00 64 1019.0
20210422140151 70 358 0.0 0.0 0.00 0.00 0.00 63 1019.1
20210422135847 70 358 0.0 0.0 0.00 0.00 0.00 62 1019.1
20210422135651 70 358 0.0 0.0 0.00 0.00 0.00 62 1019.1
20210422135151 70 358 0.0 0.0 0.00 0.00 0.00 61 1019.0
20210422135128 69 358 0.0 0.0 0.00 0.00 0.00 66 1019.0
20210422134847 70 358 0.0 0.0 0.00 0.00 0.00 64 1019.0
20210422134650 70 358 0.0 0.0 0.00 0.00 0.00 64 1019.0
20210422134340 69 358 0.0 0.0 0.00 0.00 0.00 66 1019.0
20210422134150 69 358 0.0 0.0 0.00 0.00 0.00 66 1019.0
20210422133845 68 358 0.0 0.0 0.00 0.00 0.00 64 1019.0
20210422133650 68 358 0.0 0.0 0.00 0.00 0.00 64 1019.0
20210422133150 68 358 0.0 0.0 0.00 0.00 0.00 64 1019.0
20210422133053 68 358 0.0 0.0 0.00 0.00 0.00 66 1019.1
20210422132920 68 358 0.0 0.0 0.00 0.00 0.00 65 1019.1
20210422132649 68 358 0.0 0.0 0.00 0.00 0.00 65 1019.1
20210422132149 68 358 0.0 0.0 0.00 0.00 0.00 66 1019.1
20210422132039 67 358 0.0 0.0 0.00 0.00 0.00 66 1018.6
20210422131649 68 358 0.0 0.0 0.00 0.00 0.00 66 1018.8
20210422131148 67 358 0.0 0.0 0.00 0.00 0.00 66 1018.6
20210422131108 67 358 0.0 0.0 0.00 0.00 0.00 66 1018.6
20210422130648 67 358 0.0 0.0 0.00 0.00 0.00 66 1018.6
20210422130148 67 358 0.0 0.0 0.00 0.00 0.00 67 1018.7
20210422125712 66 358 0.0 0.0 0.00 0.00 0.00 69 1018.6
20210422125648 67 358 0.0 0.0 0.00 0.00 0.00 68 1018.7
20210422125147 66 358 0.0 0.0 0.00 0.00 0.00 69 1018.6
20210422124841 66 358 0.0 0.0 0.00 0.00 0.00 69 1018.5
20210422124647 66 358 0.0 0.0 0.00 0.00 0.00 69 1018.4
20210422124147 66 358 0.0 0.0 0.00 0.00 0.00 69 1018.5
20210422123959 66 358 0.0 0.0 0.00 0.00 0.00 70 1018.5
20210422123646 66 358 0.0 0.0 0.00 0.00 0.00 70 1018.5
20210422123147 65 358 0.0 0.0 0.00 0.00 0.00 71 1018.5
20210422122724 65 358 0.0 0.0 0.00 0.00 0.00 71 1018.5
20210422122648 65 358 0.0 0.0 0.00 0.00 0.00 71 1018.5
20210422121645 65 358 0.0 0.0 0.00 0.00 0.00 73 1018.5
20210422121145 65 358 0.0 0.0 0.00 0.00 0.00 74 1018.5
20210422120645 64 358 0.0 0.0 0.00 0.00 0.00 76 1018.5
20210422120144 64 358 0.0 0.0 0.00 0.00 0.00 77 1018.5
20210422115644 64 358 0.0 0.0 0.00 0.00 0.00 78 1018.4
20210422115144 64 358 0.0 0.0 0.00 0.00 0.00 78 1018.4
20210422114643 64 358 0.0 0.0 0.00 0.00 0.00 78 1018.4
20210422114143 64 358 0.0 0.0 0.00 0.00 0.00 78 1018.4
20210422113643 64 358 0.0 0.0 0.00 0.00 0.00 78 1018.3
20210422113143 64 358 0.0 0.0 0.00 0.00 0.00 77 1018.3
20210422112901 64 358 0.0 0.0 0.00 0.00 0.00 77 1018.2
20210422112642 64 358 0.0 0.0 0.00 0.00 0.00 77 1018.2
20210422112142 65 358 0.0 0.0 0.00 0.00 0.00 77 1018.0
20210422111808 65 358 0.0 0.0 0.00 0.00 0.00 77 1017.5
20210422111642 65 358 0.0 0.0 0.00 0.00 0.00 76 1017.9
20210422110643 65 358 0.0 0.0 0.00 0.00 0.00 77 1017.7
20210422110328 65 358 0.0 0.0 0.00 0.00 0.00 77 1017.7
20210422110247 65 358 0.0 0.0 0.00 0.00 0.00 77 1017.7
20210422110141 65 358 0.0 0.0 0.00 0.00 0.00 77 1017.7
20210422105832 65 358 0.0 0.0 0.00 0.00 0.00 77 1017.5
20210422105743 65 358 0.0 0.0 0.00 0.00 0.00 77 1017.5
20210422105640 65 358 0.0 0.0 0.00 0.00 0.00 77 1017.5
20210422105345 65 358 0.0 0.0 0.00 0.00 0.00 77 1017.4
20210422105142 65 358 0.0 0.0 0.00 0.00 0.00 77 1017.4
20210422104640 65 358 0.0 0.0 0.00 0.00 0.00 79 1017.3
20210422104142 65 358 0.0 0.0 0.00 0.00 0.00 80 1017.3
20210422103834 65 358 0.0 0.0 0.00 0.00 0.00 81 1017.1
20210422103639 65 358 0.0 0.0 0.00 0.00 0.00 81 1017.1
20210422103142 65 358 0.0 0.0 0.00 0.00 0.00 84 1017.0
20210422102640 65 358 0.0 0.0 0.00 0.00 0.00 87 1017.0
20210422102215 62 358 0.0 0.0 0.00 0.00 0.00 89 1016.8
20210422102139 64 358 0.0 0.0 0.00 0.00 0.00 88 1017.0
20210422101638 63 358 0.0 0.0 0.00 0.00 0.00 90 1016.9
20210422101138 63 358 0.0 0.0 0.00 0.00 0.00 90 1016.9
20210422100638 62 358 0.0 0.0 0.00 0.00 0.00 90 1016.8
20210422100137 62 358 0.0 0.0 0.00 0.00 0.00 89 1016.8
20210422095637 62 358 0.0 0.0 0.00 0.00 0.00 89 1016.8
20210422095137 62 358 0.0 0.0 0.00 0.00 0.00 89 1016.8
20210422094636 62 358 0.0 0.0 0.00 0.00 0.00 89 1016.7
20210422094136 62 358 0.0 0.0 0.00 0.00 0.00 88 1016.7
20210422093636 62 358 0.0 0.0 0.00 0.00 0.00 88 1016.7
20210422093005 62 358 0.0 0.0 0.00 0.00 0.00 88 1016.6
20210422092801 62 358 0.0 0.0 0.00 0.00 0.00 88 1016.6
20210422092714 62 358 0.0 0.0 0.00 0.00 0.00 88 1016.6
20210422092635 62 358 0.0 0.0 0.00 0.00 0.00 88 1016.6
20210422091244 62 358 0.0 0.0 0.00 0.00 0.00 87 1016.6
20210422091212 62 358 0.0 0.0 0.00 0.00 0.00 87 1016.6
20210422091135 62 358 0.0 0.0 0.00 0.00 0.00 87 1016.6
20210422090634 62 358 0.0 0.0 0.00 0.00 0.00 87 1016.5
20210422090242 63 358 0.0 0.0 0.00 0.00 0.00 86 1016.4
20210422090134 63 358 0.0 0.0 0.00 0.00 0.00 87 1016.5
20210422085633 63 358 0.0 0.0 0.00 0.00 0.00 87 1016.6
20210422085133 63 358 0.0 0.0 0.00 0.00 0.00 87 1016.6
20210422083632 63 358 0.0 0.0 0.00 0.00 0.00 86 1016.4
20210422082634 63 358 0.0 0.0 0.00 0.00 0.00 85 1016.4
20210422082236 64 358 0.0 0.0 0.00 0.00 0.00 85 1016.3
20210422082131 64 358 0.0 0.0 0.00 0.00 0.00 85 1016.3
20210422081633 64 358 0.0 0.0 0.00 0.00 0.00 85 1016.3
20210422081222 64 358 0.0 0.0 0.00 0.00 0.00 84 1016.2
20210422081131 64 358 0.0 0.0 0.00 0.00 0.00 84 1016.2
20210422080022 66 358 0.0 0.0 0.00 0.00 0.00 79 1016.1
20210422075630 64 358 0.0 0.0 0.00 0.00 0.00 83 1016.2
20210422075130 64 358 0.0 0.0 0.00 0.00 0.00 82 1016.2
20210422074629 64 358 0.0 0.0 0.00 0.00 0.00 82 1016.1
20210422074129 64 358 0.0 0.0 0.00 0.00 0.00 82 1016.1
20210422073702 65 358 0.0 0.0 0.00 0.00 0.00 82 1016.0
20210422073629 65 358 0.0 0.0 0.00 0.00 0.00 82 1016.0
20210422073129 65 358 0.0 0.0 0.00 0.00 0.00 81 1016.1
20210422072631 65 358 0.0 0.0 0.00 0.00 0.00 81 1016.1
20210422072213 65 358 0.0 0.0 0.00 0.00 0.00 80 1016.0
20210422072128 65 358 0.0 0.0 0.00 0.00 0.00 80 1016.0
20210422071628 65 358 0.0 0.0 0.00 0.00 0.00 80 1016.1
20210422071230 66 358 0.0 0.0 0.00 0.00 0.00 80 1016.1
20210422071127 66 358 0.0 0.0 0.00 0.00 0.00 80 1016.1
20210422070732 66 358 0.0 0.0 0.00 0.00 0.00 79 1016.1
20210422070627 66 358 0.0 0.0 0.00 0.00 0.00 79 1016.1
20210422070127 66 358 0.0 0.0 0.00 0.00 0.00 79 1016.1
20210422065759 67 358 0.0 0.0 0.00 0.00 0.00 78 1016.1
20210422065626 67 358 0.0 0.0 0.00 0.00 0.00 78 1016.1
20210422065128 67 358 0.0 0.0 0.00 0.00 0.00 77 1016.1
20210422064627 67 358 0.0 0.0 0.00 0.00 0.00 76 1016.1
20210422063125 68 358 0.0 0.0 0.00 0.00 0.00 74 1016.1
20210422062625 68 358 0.0 0.0 0.00 0.00 0.00 73 1016.2
20210422062124 69 358 0.0 0.0 0.00 0.00 0.00 73 1016.2
20210422061624 69 358 0.0 0.0 0.00 0.00 0.00 73 1016.3
20210422061124 69 358 0.0 0.0 0.00 0.00 0.00 73 1016.3
20210422060624 69 358 0.0 0.0 0.00 0.00 0.00 72 1016.2
20210422060123 69 358 0.0 0.0 0.00 0.00 0.00 73 1016.0
20210422055732 69 358 0.0 0.0 0.00 0.00 0.00 73 1015.8
20210422055623 69 358 0.0 0.0 0.00 0.00 0.00 73 1015.8
20210422055123 69 358 0.0 0.0 0.00 0.00 0.00 73 1015.9
20210422054624 69 358 0.0 0.0 0.00 0.00 0.00 72 1015.9
20210422054223 69 358 0.0 0.0 0.00 0.00 0.00 72 1015.9
20210422054122 69 358 0.0 0.0 0.00 0.00 0.00 72 1015.9
20210422053622 69 358 0.0 0.0 0.00 0.00 0.00 72 1015.8
20210422053122 69 358 0.0 0.0 0.00 0.00 0.00 72 1015.8
20210422052622 69 358 0.0 0.0 0.00 0.00 0.00 72 1015.8
20210422052121 69 358 0.0 0.0 0.00 0.00 0.00 71 1015.8
20210422051621 69 358 0.0 0.0 0.00 0.00 0.00 71 1015.9
20210422051230 70 358 0.0 0.0 0.00 0.00 0.00 70 1016.0
20210422051120 70 358 0.0 0.0 0.00 0.00 0.00 70 1016.0
20210422050120 70 358 0.0 0.0 0.00 0.00 0.00 69 1016.2
20210422045802 70 358 0.0 0.0 0.00 0.00 0.00 69 1016.2
20210422045619 70 358 0.0 0.0 0.00 0.00 0.00 69 1016.2
20210422044619 70 358 0.0 0.0 0.00 0.00 0.00 68 1016.3
20210422044223 70 358 0.0 0.0 0.00 0.00 0.00 68 1016.4
20210422044119 70 358 0.0 0.0 0.00 0.00 0.00 68 1016.3
20210422043618 70 358 0.0 0.0 0.00 0.00 0.00 68 1016.4
20210422043118 70 358 0.0 0.0 0.00 0.00 0.00 68 1016.4
20210422042619 70 358 0.0 0.0 0.00 0.00 0.00 69 1016.4
20210422042359 70 358 0.0 0.0 0.00 0.00 0.00 69 1016.4
20210422042117 70 358 0.0 0.0 0.00 0.00 0.00 69 1016.4
20210422041617 70 358 0.0 0.0 0.00 0.00 0.00 69 1016.4
20210422041117 70 358 0.0 0.0 0.00 0.00 0.00 70 1016.4
20210422040617 69 358 0.0 0.0 0.00 0.00 0.00 71 1016.4
20210422040116 69 358 0.0 0.0 0.00 0.00 0.00 71 1016.5
20210422035616 69 358 0.0 0.0 0.00 0.00 0.00 72 1016.5
20210422035116 69 358 0.0 0.0 0.00 0.00 0.00 73 1016.4
20210422034615 69 358 0.0 0.0 0.00 0.00 0.00 74 1016.4
20210422034115 69 358 0.0 0.0 0.00 0.00 0.00 74 1016.5
20210422033615 69 358 0.0 0.0 0.00 0.00 0.00 75 1016.6
20210422032615 69 358 0.0 0.0 0.00 0.00 0.00 76 1016.6
20210422032114 69 358 0.0 0.0 0.00 0.00 0.00 77 1016.7
20210422031617 69 358 0.0 0.0 0.00 0.00 0.00 76 1016.6
20210422031113 69 358 0.0 0.0 0.00 0.00 0.00 76 1016.6
20210422030613 68 358 0.0 0.0 0.00 0.00 0.00 76 1016.6
20210422030113 69 358 0.0 0.0 0.00 0.00 0.00 76 1016.6
20210422025112 69 358 0.0 0.0 0.00 0.00 0.00 76 1016.6
20210422024612 69 358 0.0 0.0 0.00 0.00 0.00 75 1016.7
20210422024112 69 358 0.0 0.0 0.00 0.00 0.00 75 1016.6
20210422023612 69 358 0.0 0.0 0.00 0.00 0.00 75 1016.6
20210422023112 69 358 0.0 0.0 0.00 0.00 0.00 74 1016.6
20210422022611 69 358 0.0 0.0 0.00 0.00 0.00 74 1016.5
20210422022110 69 358 0.0 0.0 0.00 0.00 0.00 74 1016.5
20210422021610 69 358 0.0 0.0 0.00 0.00 0.00 74 1016.5
20210422021110 69 358 0.0 0.0 0.00 0.00 0.00 74 1016.4
20210422020610 69 358 0.0 0.0 0.00 0.00 0.00 74 1016.4
20210422020109 70 358 0.0 0.0 0.00 0.00 0.00 74 1016.3
20210422015610 70 358 0.0 0.0 0.00 0.00 0.00 73 1016.2
20210422015215 70 358 0.0 0.0 0.00 0.00 0.00 73 1016.2
20210422015110 70 358 0.0 0.0 0.00 0.00 0.00 73 1016.2
20210422014613 70 358 0.0 0.0 0.00 0.00 0.00 72 1016.2
20210422014108 70 358 0.0 0.0 0.00 0.00 0.00 72 1016.2
20210422013608 71 358 0.0 0.0 0.00 0.00 0.00 72 1016.2
20210422013049 71 358 0.0 0.0 0.00 0.00 0.00 71 1016.0
20210422012710 71 358 0.0 0.0 0.00 0.00 0.00 71 1016.0
20210422012607 71 358 0.0 0.0 0.00 0.00 0.00 71 1016.0
20210422012339 71 358 0.0 0.0 0.00 0.00 0.00 71 1015.9
20210422012107 71 358 0.0 0.0 0.00 0.00 0.00 71 1015.9
20210422011607 71 358 0.0 0.0 0.00 0.00 0.00 71 1016.0
20210422011107 71 358 0.0 0.0 0.00 0.00 0.00 70 1016.0
20210422010606 71 358 0.0 0.0 0.00 0.00 0.00 70 1016.0
20210422010108 72 358 0.0 0.0 0.00 0.00 0.00 70 1016.2
20210422005734 72 358 0.0 0.0 0.00 0.00 0.00 69 1016.1
20210422005605 72 358 0.0 0.0 0.00 0.00 0.00 69 1016.1
20210422005105 72 358 0.0 0.0 0.00 0.00 0.00 69 1016.1
20210422004605 72 358 0.0 0.0 0.00 0.00 0.00 69 1016.1
20210422004105 72 358 0.0 0.0 0.00 0.00 0.00 69 1016.1
20210422003605 72 358 0.0 0.0 0.00 0.00 0.00 68 1016.1
20210422003106 72 358 0.0 0.0 0.00 0.00 0.00 67 1016.1
20210422002604 72 358 0.0 0.0 0.00 0.00 0.00 67 1016.2
20210422002359 72 358 0.0 0.0 0.00 0.00 0.00 67 1016.2
20210422002103 72 358 0.0 0.0 0.00 0.00 0.00 67 1016.2
20210422001540 73 358 0.0 0.0 0.00 0.00 0.00 66 1016.1
20210422001103 73 358 0.0 0.0 0.00 0.00 0.00 66 1016.1
20210422000602 73 358 0.0 0.0 0.00 0.00 0.00 66 1016.0
20210422000102 73 358 0.0 0.0 0.00 0.00 0.00 65 1015.9
20210421235602 73 358 0.0 0.0 0.00 0.00 0.00 65 1015.9
20210421235102 74 358 0.0 0.0 0.00 0.00 0.00 66 1015.8
20210421234602 74 358 0.0 0.0 0.00 0.00 0.00 66 1015.9
20210421234101 74 358 0.0 0.0 0.00 0.00 0.00 65 1015.9
20210421233736 74 358 0.0 0.0 0.00 0.00 0.00 65 1015.8
20210421233601 74 358 0.0 0.0 0.00 0.00 0.00 65 1015.8
20210421233314 75 358 0.0 0.0 0.00 0.00 0.00 64 1015.8
20210421233102 75 358 0.0 0.0 0.00 0.00 0.00 64 1015.8
20210421232601 75 358 0.0 0.0 0.00 0.00 0.00 63 1015.9
20210421232100 75 358 0.0 0.0 0.00 0.00 0.00 62 1015.8
20210421231600 75 358 0.0 0.0 0.00 0.00 0.00 62 1015.7
20210421231059 75 358 0.0 0.0 0.00 0.00 0.00 62 1015.7
20210421230600 76 358 0.0 0.0 0.00 0.00 0.00 61 1015.6
20210421230101 76 358 0.0 0.0 0.00 0.00 0.00 61 1015.5
20210421225600 76 358 0.0 0.0 0.00 0.00 0.00 60 1015.5
20210421224559 77 358 0.0 0.0 0.00 0.00 0.00 58 1015.5
20210421224058 77 358 0.0 0.0 0.00 0.00 0.00 58 1015.5
20210421223057 77 358 0.0 0.0 0.00 0.00 0.00 58 1015.5
20210421222056 77 358 0.0 0.0 0.00 0.00 0.00 58 1015.4
20210421221556 77 358 0.0 0.0 0.00 0.00 0.00 59 1015.3
20210421221056 77 358 0.0 0.0 0.00 0.00 0.00 59 1015.4
20210421220555 77 358 0.0 0.0 0.00 0.00 0.00 59 1015.3
20210421220058 77 358 0.0 0.0 0.00 0.00 0.00 58 1015.3
20210421215555 78 358 0.0 0.0 0.00 0.00 0.00 56 1015.3
20210421215055 78 358 0.0 0.0 0.00 0.00 0.00 57 1015.3
20210421214803 78 358 0.0 0.0 0.00 0.00 0.00 57 1015.2
20210421214554 78 358 0.0 0.0 0.00 0.00 0.00 57 1015.2
20210421214250 78 358 0.0 0.0 0.00 0.00 0.00 56 1015.2
20210421214054 78 358 0.0 0.0 0.00 0.00 0.00 56 1015.2
20210421213554 78 358 0.0 0.0 0.00 0.00 0.00 57 1015.1
20210421213303 78 358 0.0 0.0 0.00 0.00 0.00 58 1015.1
20210421213053 78 358 0.0 0.0 0.00 0.00 0.00 58 1015.1
20210421212553 78 358 0.0 0.0 0.00 0.00 0.00 56 1015.1
20210421212053 78 358 0.0 0.0 0.00 0.00 0.00 56 1015.1
20210421211553 79 358 0.0 0.0 0.00 0.00 0.00 55 1015.1
20210421211210 79 358 0.0 0.0 0.00 0.00 0.00 57 1015.0
20210421211106 79 358 0.0 0.0 0.00 0.00 0.00 56 1014.9
20210421211053 79 358 0.0 0.0 0.00 0.00 0.00 57 1015.0
20210421210552 79 358 0.0 0.0 0.00 0.00 0.00 56 1015.0
20210421210052 79 358 0.0 0.0 0.00 0.00 0.00 57 1014.9
20210421205821 79 358 0.0 0.0 0.00 0.00 0.00 56 1014.9
20210421205551 79 358 0.0 0.0 0.00 0.00 0.00 56 1014.9
20210421205114 79 358 0.0 0.0 0.00 0.00 0.00 58 1015.0
20210421204052 80 358 0.0 0.0 0.00 0.00 0.00 57 1014.9
20210421203628 80 358 0.0 0.0 0.00 0.00 0.00 57 1014.8
20210421203551 80 358 0.0 0.0 0.00 0.00 0.00 57 1014.9
20210421203051 79 358 0.0 0.0 0.00 0.00 0.00 59 1014.9
20210421202550 79 358 0.0 0.0 0.00 0.00 0.00 56 1014.9
20210421202330 80 358 0.0 0.0 0.00 0.00 0.00 57 1014.9
20210421202051 80 358 0.0 0.0 0.00 0.00 0.00 57 1014.9
20210421201549 80 358 0.0 0.0 0.00 0.00 0.00 57 1014.9
20210421201049 80 358 0.0 0.0 0.00 0.00 0.00 57 1014.8
20210421200548 80 358 0.0 0.0 0.00 0.00 0.00 57 1014.7
20210421200049 80 358 0.0 0.0 0.00 0.00 0.00 56 1014.8
20210421195548 80 358 0.0 0.0 0.00 0.00 0.00 56 1014.8
20210421195059 80 358 0.0 0.0 0.00 0.00 0.00 56 1014.8
20210421194551 80 358 0.0 0.0 0.00 0.00 0.00 55 1014.9
20210421194047 80 358 0.0 0.0 0.00 0.00 0.00 56 1015.0
20210421193547 80 358 0.0 0.0 0.00 0.00 0.00 58 1014.9
20210421193256 80 358 0.0 0.0 0.00 0.00 0.00 57 1014.9
20210421193049 80 358 0.0 0.0 0.00 0.00 0.00 57 1014.9
20210421192547 80 358 0.0 0.0 0.00 0.00 0.00 57 1015.0
20210421192111 80 358 0.0 0.0 0.00 0.00 0.00 58 1015.1
20210421191439 81 358 0.0 0.0 0.00 0.00 0.00 57 1015.2
20210421191045 81 358 0.0 0.0 0.00 0.00 0.00 57 1015.1
20210421190811 81 358 0.0 0.0 0.00 0.00 0.00 57 1015.2
20210421190545 81 358 0.0 0.0 0.00 0.00 0.00 57 1015.2
20210421190218 81 358 0.0 0.0 0.00 0.00 0.00 58 1015.2
20210421190045 81 358 0.0 0.0 0.00 0.00 0.00 58 1015.2
20210421185544 81 358 0.0 0.0 0.00 0.00 0.00 56 1015.3
20210421185312 81 358 0.0 0.0 0.00 0.00 0.00 59 1015.2
20210421185044 81 358 0.0 0.0 0.00 0.00 0.00 59 1015.2
20210421184544 81 358 0.0 0.0 0.00 0.00 0.00 59 1015.3
20210421184205 81 358 0.0 0.0 0.00 0.00 0.00 60 1015.4
20210421184044 81 358 0.0 0.0 0.00 0.00 0.00 60 1015.4
20210421183543 80 358 0.0 0.0 0.00 0.00 0.00 60 1015.5
20210421183043 80 358 0.0 0.0 0.00 0.00 0.00 60 1015.5
20210421182750 80 358 0.0 0.0 0.00 0.00 0.00 59 1015.5
20210421182543 80 358 0.0 0.0 0.00 0.00 0.00 59 1015.5
20210421182221 80 358 0.0 0.0 0.00 0.00 0.00 61 1015.6
20210421182042 80 358 0.0 0.0 0.00 0.00 0.00 61 1015.6
20210421181542 80 358 0.0 0.0 0.00 0.00 0.00 61 1015.7
20210421181216 80 358 0.0 0.0 0.00 0.00 0.00 60 1015.8
20210421181043 80 358 0.0 0.0 0.00 0.00 0.00 60 1015.8
20210421180753 80 358 0.0 0.0 0.00 0.00 0.00 60 1015.9
20210421180541 80 358 0.0 0.0 0.00 0.00 0.00 60 1015.9
20210421180151 79 358 0.0 0.0 0.00 0.00 0.00 62 1015.9
20210421175541 79 358 0.0 0.0 0.00 0.00 0.00 62 1015.9
20210421175053 78 358 0.0 0.0 0.00 0.00 0.00 62 1016.0
20210421175048 78 358 0.0 0.0 0.00 0.00 0.00 60 1016.0
20210421173540 78 358 0.0 0.0 0.00 0.00 0.00 60 1016.0
20210421173039 78 358 0.0 0.0 0.00 0.00 0.00 58 1016.0
20210421172912 78 358 0.0 0.0 0.00 0.00 0.00 59 1016.1